Probability
0 0 0 0 0 0 0 0 0 0 0 0 2 4 7 10 16 19 25 36 48 53 53 52 51 48 41 38 45 55 65 75 83 84 81 77 70 58 46 38 35 32 30 31
0 0 0 0 0 0 0 0 0 0 0 1 3 6 10 16 23 29 35 43 49 52 51 49 46 42 39 38 43 53 65 76 83 84 81 74 64 52 42 35 31 28 28 28
0 0 0 0 0 0 0 0 0 0 0 1 4 7 12 21 30 38 44 46 45 44 45 44 40 36 35 37 42 52 64 75 82 84 80 71 59 47 38 30 24 22 21 21
0 0 0 0 0 0 0 0 0 0 0 0 2 4 10 21 32 41 45 42 38 37 38 39 38 34 32 36 42 50 61 71 77 79 75 67 54 44 33 22 15 12 11 11
0 0 0 0 0 0 0 0 0 0 0 0 0 2 9 18 29 40 43 38 33 31 31 33 35 35 34 36 39 44 52 57 60 60 57 51 42 33 22 12 6 3 3 3
0 0 0 0 0 0 0 0 0 0 0 0 0 3 9 15 24 33 34 29 23 22 22 23 26 31 33 32 32 33 35 35 33 32 30 27 24 18 11 5 1 0 0 0
0 0 0 0 0 0 0 0 0 0 0 0 1 5 11 14 19 22 21 17 14 13 14 14 16 20 22 22 21 19 18 16 14 13 12 11 9 7 5 2 0 0 0 0
0 0 0 0 0 0 0 0 0 0 0 0 2 10 15 14 13 14 11 9 8 8 8 8 9 10 10 10 10 9 8 7 6 5 5 3 2 2 1 0 0 0 0 0
0 0 0 0 0 0 0 0 0 0 0 0 2 10 15 14 10 8 6 5 4 3 3 3 4 4 3 3 3 4 3 3 2 1 1 1 0 0 0 0 0 0 0 0
0 0 0 0 0 0 0 0 0 0 0 0 1 5 11 12 8 4 3 1 1 0 0 0 1 1 1 1 1 1 1 1 0 0 0 0 0 0 0 0 0 0 0 0
0 0 0 0 0 0 0 0 0 0 0 0 0 2 6 9 7 3 1 0 0 0 0 0 0 0 0 0 0 0 0 0 0 0 0 0 0 0 0 0 0 0 0 0
0 0 0 0 0 0 0 0 0 0 0 0 1 2 4 6 5 2 1 0 0 0 0 0 0 0 0 0 0 0 0 0 0 0 0 0 0 0 0 0 0 0 0 0
0 0 0 0 0 0 0 0 0 0 0 0 1 2 4 4 3 1 0 0 0 0 0 0 0 0 0 0 0 0 0 0 0 0 0 0 0 0 0 0 0 0 0 0
0 0 0 0 0 0 0 0 0 0 0 0 1 3 4 3 2 1 0 0 0 0 0 0 0 0 0 0 0 0 0 0 0 0 0 0 0 0 0 0 0 0 0 0
0 0 0 0 0 0 0 0 0 0 0 0 2 5 5 3 1 0 0 0 0 0 0 0 0 0 0 0 0 0 0 0 0 0 0 0 0 0 0 0 0 0 0 0
0 0 0 0 0 0 0 0 1 1 1 1 3 4 4 2 1 0 0 0 0 0 0 0 0 0 0 0 0 0 0 0 0 0 0 0 0 0 0 0 0 0 0 0
0 0 0 0 0 0 0 0 1 2 2 2 2 2 2 1 0 0 0 0 0 0 0 0 0 0 0 0 0 0 0 0 0 0 0 0 0 0 0 0 0 0 0 0
0 0 0 0 0 0 0 0 1 1 1 1 1 1 0 0 0 0 0 0 0 0 0 0 0 0 0 0 0 0 0 0 0 0 0 0 0 0 0 0 0 0 0 0
0 0 0 0 0 0 0 0 0 0 0 0 0 0 0 0 0 0 0 0 0 0 0 0 0 0 0 0 0 0 0 0 0 0 0 0 0 0 0 0 0 0 0 0
0 0 0 0 0 0 0 0 0 0 0 0 0 0 0 0 0 0 0 0 0 0 0 0 0 0 0 0 0 0 0 0 0 0 0 0 0 0 0 0 0 0 0 0
0 0 0 0 0 0 0 0 0 0 0 0 0 0 0 0 0 0 0 0 0 0 0 0 0 0 0 0 0 0 0 0 0 0 0 0 0 0 0 0 0 0 0 0
0 0 0 0 0 0 0 0 0 0 0 0 0 0 0 0 0 0 0 0 0 0 0 0 0 0 0 0 0 0 0 0 0 0 0 0 0 0 0 0 0 0 0 0
0 0 0 0 0 0 0 0 0 0 0 0 0 0 0 0 0 0 0 0 0 0 0 0 0 0 0 0 0 0 0 0 0 0 0 0 0 0 0 0 0 0 0 0
0 0 0 0 0 0 0 0 0 0 0 0 0 0 0 0 0 0 0 0 0 0 0 0 0 0 0 0 0 0 0 0 0 0 0 0 0 0 0 0 0 0 0 0
0 0 0 0 0 0 0 0 0 0 0 0 0 0 0 0 0 0 0 0 0 0 0 0 0 0 0 0 0 0 0 0 0 0 0 0 0 0 0 0 0 0 0 0
0 0 0 0 0 0 0 0 0 0 0 0 0 0 0 0 0 0 0 0 0 0 0 0 0 0 0 0 0 0 0 0 0 0 0 0 0 0 0 0 0 0 0 0
Wind_Speed
1 2 3 6 6 6 5 6 9 11 10 6 9 12 9 2 2 3 6 9 10 7 6 7 6 4 4 3 2 4 7 8 8 7 6 6 4 4 3 3 5 5 5 5
3 4 9 7 6 5 6 8 10 12 9 5 7 8 2 4 5 7 9 10 10 8 7 7 7 4 3 2 1 4 6 7 8 6 5 4 5 4 4 4 5 5 6 5
6 8 7 7 7 7 8 7 7 8 9 5 2 1 2 6 11 13 12 10 9 9 9 8 7 5 4 2 0 2 3 5 6 7 7 7 5 4 4 5 5 5 6 6
7 9 7 8 9 8 9 8 7 5 3 5 2 1 2 4 10 11 11 10 10 9 8 7 6 6 4 3 4 4 4 4 5 7 8 9 6 5 4 4 5 7 7 7
7 5 6 9 11 8 8 8 5 3 0 3 3 3 4 2 7 8 10 11 10 10 10 9 8 7 7 8 7 7 8 9 8 7 6 7 7 6 6 7 8 7 7 8
9 7 6 9 9 7 6 2 3 4 5 2 3 3 3 2 5 9 10 11 11 11 11 11 11 11 12 11 10 10 11 12 10 10 9 9 10 10 10 8 8 6 6 7
7 8 6 5 4 3 2 5 4 4 3 4 3 4 2 7 11 13 12 11 11 11 11 12 13 13 13 13 13 12 14 13 12 13 12 11 11 10 10 9 8 7 6 6
3 7 5 4 6 5 3 8 7 4 2 4 3 4 7 13 15 15 13 11 11 11 12 13 13 13 14 14 14 14 15 14 14 14 13 12 12 9 8 9 8 8 6 6
2 6 6 5 4 7 3 4 8 6 1 0 0 6 8 12 14 13 12 12 11 11 12 13 14 14 14 14 14 13 14 15 14 14 14 13 12 12 11 10 9 7 6 6
3 5 7 4 1 1 6 5 5 5 3 2 2 5 8 12 14 12 11 11 10 10 11 12 13 13 13 13 13 14 14 15 14 13 12 12 12 11 10 9 10 8 7 7
2 1 6 4 1 2 2 3 4 4 5 5 3 2 2 15 15 15 12 11 10 11 11 11 11 12 12 12 13 13 13 13 13 12 12 12 11 10 10 9 8 8 7 7
0 3 1 3 3 0 4 3 5 5 3 3 3 2 6 12 12 14 13 11 11 11 10 11 11 12 12 12 12 12 12 12 11 11 11 11 10 10 10 9 8 8 8 7
2 4 3 6 8 8 5 3 2 4 3 3 4 5 8 12 12 12 13 12 10 10 11 11 11 11 11 11 11 11 11 11 10 10 11 11 10 9 9 8 8 8 8 7
5 4 4 3 3 2 4 6 4 4 3 2 4 11 11 12 13 11 11 11 10 10 10 11 10 10 10 10 10 10 10 9 10 10 10 9 8 8 7 7 7 7 7 7
6 3 1 0 1 2 5 8 8 5 2 4 7 12 14 13 13 12 12 12 11 11 11 11 10 9 9 10 9 9 8 8 8 8 8 7 6 6 7 7 6 6 6 6
5 3 2 2 3 5 8 12 9 8 6 9 12 9 9 11 10 11 11 12 12 11 11 11 10 10 9 9 8 7 7 6 7 7 7 6 6 6 6 5 5 5 5 4
3 3 3 1 2 5 8 9 7 6 5 3 5 8 14 13 11 10 10 10 10 10 10 9 9 8 7 6 6 6 5 5 6 6 6 6 5 5 4 5 4 4 3 3
3 3 3 1 4 6 1 2 5 9 9 8 11 12 11 11 10 8 8 10 11 10 9 8 7 7 6 5 5 5 5 6 6 6 5 4 4 4 4 4 3 2 1 1
4 4 3 3 5 4 0 2 0 4 5 5 12 13 13 14 11 8 6 8 9 9 8 7 6 6 5 5 4 6 5 5 5 5 4 3 4 3 3 2 1 1 1 1
5 6 5 4 4 2 2 4 2 7 4 3 9 13 13 9 6 5 7 9 9 8 6 6 6 6 5 4 5 6 5 5 4 3 3 2 2 2 2 0 1 1 1 2
5 6 5 4 4 1 4 4 1 1 4 7 8 10 8 2 5 9 10 9 8 7 7 6 6 5 4 4 5 5 4 3 2 2 2 1 1 1 1 0 1 1 2 2
3 3 3 3 3 2 5 3 2 3 4 7 7 6 8 11 13 11 10 9 8 7 6 6 5 4 3 4 5 4 2 1 2 1 1 0 1 1 1 0 1 1 2 3
3 4 4 4 3 3 2 4 4 6 7 5 6 10 13 12 11 10 9 8 7 6 5 4 5 5 3 3 4 4 1 1 1 1 1 2 2 2 1 1 1 1 2 2
1 4 6 5 3 4 6 6 6 7 8 9 11 12 12 12 10 10 8 6 6 5 5 4 5 5 3 2 3 3 2 2 1 1 2 2 2 2 2 0 1 2 2 2
1 4 5 5 4 6 5 6 9 11 12 12 10 10 10 12 11 9 7 6 5 4 4 4 5 4 3 3 2 3 3 2 1 2 3 2 2 2 1 0 1 2 2 3
1 5 7 6 8 6 4 5 11 12 10 11 12 10 9 9 9 7 6 5 5 5 4 5 4 4 3 3 3 3 3 3 2 2 3 2 2 1 1 2 2 2 1 2
Wind_Direction
241 106 227 236 209 211 257 282 286 282 280 258 239 242 250 231 99 120 130 130 130 122 105 87 79 91 99 96 159 182 170 170 162 158 153 144 135 120 101 96 105 109 109 109
11 254 234 238 255 259 270 277 282 291 297 278 233 234 231 67 84 95 109 113 118 114 96 88 85 77 90 92 182 192 183 176 172 163 147 129 120 104 93 88 83 88 96 98
210 242 238 238 255 259 266 252 262 277 314 333 139 252 87 74 74 72 71 80 86 100 106 98 92 75 72 65 96 185 179 168 155 136 120 109 97 90 86 79 73 64 76 83
241 248 248 240 242 231 257 252 254 282 336 309 72 166 289 103 80 74 71 67 65 68 79 84 86 84 78 61 47 66 86 101 118 128 136 138 134 125 107 94 83 68 62 67
248 242 230 236 237 224 235 253 255 271 284 336 8 108 275 79 94 86 76 70 64 62 67 71 68 68 58 56 56 63 71 70 75 88 109 113 106 104 100 95 90 78 66 63
250 259 225 225 237 226 234 291 360 48 69 345 266 133 293 6 124 108 83 69 63 63 65 67 66 65 61 58 58 61 70 68 68 76 81 96 105 109 108 100 95 82 72 63
293 284 260 234 245 278 105 85 39 13 23 254 259 114 65 54 81 95 86 70 60 59 61 62 64 63 61 58 58 63 69 68 66 72 73 79 89 94 97 96 91 87 78 70
274 287 270 219 187 193 178 136 152 175 203 292 357 102 87 84 84 84 81 74 66 62 62 63 62 63 63 61 61 65 68 68 66 70 71 70 75 79 80 81 86 85 83 79
243 272 283 248 198 160 163 173 168 139 153 294 283 115 113 104 95 90 86 78 70 67 66 67 66 65 65 64 62 65 71 70 67 70 72 71 73 77 80 80 80 81 82 85
190 276 291 277 86 173 163 157 100 117 152 234 248 168 164 143 123 111 101 93 83 77 75 73 71 71 69 69 68 66 67 69 68 68 73 76 74 77 79 80 78 77 75 76
124 235 319 10 77 213 117 113 118 141 162 167 222 278 165 148 136 126 118 111 102 92 84 80 77 74 75 73 72 72 71 72 72 72 73 74 73 74 76 76 76 78 75 72
50 115 333 287 284 86 122 151 140 153 222 172 151 77 73 121 123 124 122 116 108 101 96 91 87 84 79 76 74 74 74 74 73 74 75 73 70 70 70 70 67 68 68 65
64 83 39 354 352 12 30 4 138 149 137 150 145 123 101 112 114 119 121 118 111 104 99 93 88 85 84 81 78 76 74 74 73 74 74 71 68 68 67 64 62 64 66 64
90 76 123 161 249 310 0 6 18 97 123 171 152 134 138 133 127 123 119 115 110 104 99 95 91 86 83 80 78 79 77 77 78 75 74 72 68 67 67 64 63 63 65 68
84 87 92 210 288 75 46 24 28 48 122 150 144 142 152 146 139 133 127 123 118 114 107 101 96 91 85 82 79 79 78 76 80 80 76 74 73 70 68 65 63 61 61 67
60 93 63 18 43 68 47 25 34 43 56 107 115 111 127 124 122 129 133 132 127 121 114 108 102 96 90 88 86 81 78 78 82 84 82 78 77 73 70 67 62 61 58 59
39 87 88 337 332 55 32 6 34 50 35 103 119 131 137 133 135 138 134 128 123 117 111 106 99 94 92 90 93 91 86 84 83 83 83 83 85 79 72 73 67 57 51 55
127 90 104 89 59 70 354 353 75 74 55 80 103 119 126 123 111 106 120 124 119 114 109 105 101 96 90 90 88 87 84 85 84 81 80 81 84 79 71 65 55 37 34 51
130 119 88 86 90 105 22 315 258 95 65 93 120 122 119 117 101 87 95 108 113 114 113 111 110 107 99 89 86 87 85 85 86 86 81 81 87 81 69 58 26 352 351 323
52 72 87 86 99 123 274 300 144 104 108 150 138 139 142 138 129 140 125 113 109 107 107 108 104 98 93 87 90 91 89 92 98 105 99 87 87 89 92 110 302 306 312 303
26 31 55 80 96 113 295 304 140 130 188 163 152 150 152 131 129 131 125 116 115 113 112 109 104 99 101 98 94 93 94 108 136 131 113 82 74 137 178 227 311 330 349 359
98 77 52 79 92 252 309 24 120 170 126 129 133 131 117 111 112 117 119 119 119 115 112 109 102 95 95 103 100 99 108 150 144 131 125 273 288 249 174 168 357 18 33 30
86 152 141 130 177 229 25 90 108 115 110 109 113 123 126 121 121 120 119 120 121 119 115 110 109 99 90 105 113 116 162 166 145 145 277 277 288 290 255 188 152 58 51 56
67 104 95 85 96 96 85 86 85 99 108 113 121 125 124 122 123 122 122 123 122 119 119 115 111 110 110 127 138 164 189 175 168 229 271 277 285 285 289 231 150 131 113 93
171 100 94 100 128 92 78 101 108 102 107 110 112 116 121 123 125 125 126 127 126 125 123 125 131 140 159 173 192 216 207 181 194 258 280 290 282 261 231 126 116 151 179 174
312 145 145 182 185 144 146 132 121 115 120 125 122 116 120 124 125 125 126 128 128 127 126 132 145 160 185 199 222 236 224 204 208 260 278 277 274 240 172 131 76 52 141 149